[[{"header":{"parameterUnit":"m.s-1","parameterCategory":2,"la1":30.2992,"la2":30.254,"lo1":-89.0895,"lo2":-89.0443,"dy":0.0025,"dx":0.0025,"nx":19,"ny":19,"refTime":"2026-05-11T09:00:00:Z","depth":"0","parameterNumber":2,"parameterNumberName":"U-component_of_CURRENTS"},"data":[0,0,0,0.0972,0.0971,0.0933,0.0933,0.1012,0.1013,0,0,0,0,0,0,0,0,0,0,0,0.0988,0.0988,0.0972,0.0971,0.0933,0.0933,0.1012,0.1013,0,0,0,0,0,0,0,0,0,0,0,0.0988,0.0988,0.0988,0.0971,0.0933,0.0933,0.1012,0.1008,0,0,0,0,0,0,0,0,0,0,0.1029,0.1025,0.0988,0.0988,0.0971,0.0933,0.0933,0.1007,0.1009,0.1067,0,0.106,0,0.1042,0.1022,0.1022,0,0,0,0.0969,0.1023,0.1015,0.0988,0.097,0.0933,0.095,0.1007,0.1009,0.107,0.1061,0.1063,0.1043,0.1022,0.1023,0.1221,0.1222,0,0,0.0972,0.0983,0.1013,0.1016,0.0963,0.0951,0.0948,0.1006,0.1013,0.1061,0.1064,0.1044,0.1023,0.1024,0.122,0.1221,0,0,0,0.0979,0.0985,0.0972,0.1014,0.0998,0.095,0.0947,0.101,0.1006,0.1064,0.1045,0.1024,0.1025,0.1218,0.122,0.1287,0,0,0,0.098,0.0989,0.0973,0.0979,0.0996,0.0986,0.0949,0.1002,0.1007,0.1045,0.1024,0.1027,0.1217,0.1219,0.1282,0.1342,0,0,0,0.0989,0.099,0.0985,0.098,0.0963,0.0984,0.0982,0.1001,0.0997,0.1022,0.1027,0.1216,0.1219,0.1278,0.1334,0.146,0,0,0,0.1002,0.1008,0.0986,0.0994,0.0964,0.0985,0.0981,0.0997,0.1019,0.1025,0.1217,0.122,0.1277,0.1329,0.1454,0.1521,0.1553,0,0,0.1019,0.101,0.1017,0.0996,0.103,0.0989,0.106,0.1078,0.1092,0.1203,0.1207,0.1284,0.1333,0.1458,0.1689,0.1717,0,0,0,0.1029,0.1044,0.1048,0.1059,0.1058,0.1103,0.11,0.1145,0.1239,0.1119,0.1325,0.1356,0.1431,0.146,0.1483,0.1504,0.1233,0.1233,0.1233,0.1093,0.1088,0.1121,0.113,0.1149,0.1194,0.1264,0.1337,0.1308,0.138,0.1439,0.1622,0.1653,0.1672,0.1692,0.1456,0.1456,0.1457,0.1457,0.1157,0.1176,0.1189,0.1215,0.1257,0.1312,0.1442,0.1466,0.1644,0.1563,0.1633,0.1565,0.1701,0.1713,0.1462,0.1461,0.146,0.146,0.1459,0.1211,0.1217,0.1227,0.1274,0.1348,0.1399,0.1566,0.166,0.1732,0.1818,0.1869,0.1868,0.1858,0.1847,0.1847,0.1848,0.1849,0.185,0.185,0.1248,0.1262,0.1295,0.1344,0.1377,0.1481,0.1659,0.1785,0.1953,0.1995,0.1996,0.1948,0.1743,0.1703,0.1863,0.1861,0.1859,0.1858,0.1857,0.1285,0.129,0.1343,0.1376,0.1467,0.1548,0.1722,0.1977,0.214,0.2242,0.2247,0.2107,0.2109,0.2089,0.206,0.2303,0.2303,0.2303,0.2303,0.1299,0.1312,0.1361,0.1415,0.1502,0.158,0.1751,0.1984,0.2283,0.2417,0.2442,0.234,0.2321,0.2328,0.2303,0.2275,0.2568,0.2568,0.2568,0.1307,0.1327,0.1349,0.1401,0.1486,0.1574,0.1671,0.1867,0.2347,0.2577,0.2468,0.2456,0.2296,0.2264,0.2253,0.2217,0.216,0,0]},{"header":{"parameterUnit":"m.s-1","parameterCategory":2,"la1":30.2992,"la2":30.254,"lo1":-89.0895,"lo2":-89.0443,"dy":0.0025,"dx":0.0025,"nx":19,"ny":19,"refTime":"2026-05-11T09:00:00:Z","depth":"0","parameterNumber":3,"parameterNumberName":"V-component_of_CURRENTS"},"data":[0,0,0,-0.0154,-0.0154,-0.0135,-0.0135,-0.0131,-0.0131,0,0,0,0,0,0,0,0,0,0,0,-0.0159,-0.0159,-0.0154,-0.0154,-0.0135,-0.0135,-0.0131,-0.0131,0,0,0,0,0,0,0,0,0,0,0,-0.0159,-0.0159,-0.0159,-0.0154,-0.0135,-0.0135,-0.0131,-0.0139,0,0,0,0,0,0,0,0,0,0,-0.0153,-0.0141,-0.0159,-0.0159,-0.0154,-0.0135,-0.0135,-0.0139,-0.0138,-0.0147,0,-0.0146,0,-0.0143,-0.0132,-0.0132,0,0,0,-0.0147,-0.0141,-0.0154,-0.0159,-0.0154,-0.0135,-0.0142,-0.0138,-0.0138,-0.0146,-0.0146,-0.0146,-0.0143,-0.0132,-0.0132,-0.0076,-0.0075,0,0,-0.0149,-0.0138,-0.0155,-0.0154,-0.0152,-0.0142,-0.0141,-0.0138,-0.0128,-0.0146,-0.0146,-0.0143,-0.0132,-0.0132,-0.0077,-0.0076,0,0,0,-0.0156,-0.0138,-0.015,-0.0154,-0.0152,-0.0142,-0.0141,-0.0128,-0.0137,-0.0146,-0.0143,-0.0132,-0.0132,-0.0077,-0.0076,-0.0004,0,0,0,-0.0156,-0.0143,-0.0151,-0.0141,-0.0152,-0.0133,-0.0131,-0.0137,-0.0137,-0.0143,-0.0132,-0.0132,-0.0078,-0.0077,-0.0008,0.0057,0,0,0,-0.0159,-0.0143,-0.0146,-0.0141,-0.0139,-0.0133,-0.0141,-0.0137,-0.0136,-0.0132,-0.0132,-0.0079,-0.0077,-0.0011,0.005,0.0097,0,0,0,-0.0141,-0.0124,-0.0145,-0.0118,-0.0139,-0.011,-0.0141,-0.0119,-0.0111,-0.0132,-0.0078,-0.0076,-0.0012,0.0046,0.0093,0.0141,0.0163,0,0,-0.0108,-0.0119,-0.0102,-0.0122,-0.0087,-0.0112,-0.0046,-0.0057,-0.0088,-0.0082,-0.008,-0.0007,0.005,0.0096,0.0237,0.0256,0,0,0,-0.0084,-0.0074,-0.0066,-0.0052,-0.0047,-0.0011,-0.0024,-0.0015,-0.0001,-0.0078,0.0007,0.0041,0.0068,0.0088,0.0104,0.0031,-0.0069,-0.0069,-0.0069,-0.003,-0.003,0.001,0.0013,0.0033,0.0064,0.0103,0.0113,0.0057,0.008,0.0109,0.0211,0.0234,0.0247,0.0171,0.0101,0.0101,0.0101,0.0102,0.0025,0.0048,0.0065,0.01,0.0127,0.0172,0.0225,0.0216,0.027,0.0202,0.0223,0.0175,0.0268,0.0181,0.0106,0.0106,0.0105,0.0105,0.0104,0.0047,0.0064,0.0085,0.0148,0.0216,0.0255,0.0376,0.0389,0.0353,0.0389,0.0382,0.0381,0.0296,0.0378,0.0379,0.0379,0.038,0.038,0.038,0.0062,0.0089,0.0137,0.0203,0.026,0.0365,0.0468,0.0521,0.0538,0.0499,0.0498,0.0338,0.0296,0.0276,0.0388,0.0387,0.0386,0.0385,0.0385,0.01,0.0103,0.0183,0.0242,0.0391,0.0525,0.0613,0.0716,0.0733,0.074,0.0533,0.0547,0.0533,0.052,0.0506,0.0671,0.0671,0.0671,0.0671,0.0124,0.0129,0.024,0.0346,0.0493,0.061,0.0796,0.0874,0.0777,0.0694,0.0609,0.0534,0.0526,0.0505,0.0492,0.0474,0.0627,0.0627,0.0627,0.0168,0.0191,0.0277,0.0368,0.0534,0.0701,0.087,0.0984,0.0802,0.0614,0.0502,0.0504,0.0376,0.0369,0.0316,0.0303,0.0266,0,0]}],[{"header":{"parameterUnit":"m.s-1","parameterCategory":2,"la1":30.2992,"la2":30.254,"lo1":-89.0895,"lo2":-89.0443,"dy":0.0025,"dx":0.0025,"nx":19,"ny":19,"refTime":"2026-05-11T09:00:00:Z","depth":"2","parameterNumber":2,"parameterNumberName":"U-component_of_CURRENTS"},"data":[0,0,0,0.1047,0.1046,0.1022,0.1022,0.11,0.1101,0,0,0,0,0,0,0,0,0,0,0,0.1058,0.1058,0.1047,0.1046,0.1022,0.1022,0.1099,0.1101,0,0,0,0,0,0,0,0,0,0,0,0.1058,0.1058,0.1058,0.1046,0.1022,0.1022,0.1099,0.109,0,0,0,0,0,0,0,0,0,0,0.1099,0.1094,0.1058,0.1058,0.1046,0.1022,0.1022,0.1088,0.109,0.1143,0,0.114,0,0.1126,0.1109,0.1109,0,0,0,0.1043,0.1091,0.1087,0.1058,0.1046,0.1022,0.1032,0.1088,0.1091,0.1146,0.1141,0.1143,0.1128,0.1109,0.111,0.1317,0.1318,0,0,0.1044,0.1054,0.1085,0.1089,0.1045,0.1033,0.1031,0.1089,0.1096,0.1141,0.1145,0.1129,0.111,0.1111,0.1316,0.1317,0,0,0,0.105,0.1055,0.1047,0.1087,0.1076,0.1032,0.103,0.1093,0.1091,0.1145,0.113,0.1111,0.1112,0.1314,0.1316,0.1464,0,0,0,0.1051,0.1059,0.1047,0.1053,0.1074,0.1069,0.1034,0.1086,0.1092,0.1129,0.1111,0.1113,0.1313,0.1315,0.1457,0.1507,0,0,0,0.1058,0.1059,0.1058,0.1054,0.1044,0.1067,0.1067,0.1086,0.1084,0.1109,0.1114,0.1312,0.1315,0.145,0.1496,0.1623,0,0,0,0.1067,0.108,0.1058,0.108,0.1044,0.1095,0.1066,0.1097,0.1122,0.1111,0.1313,0.1316,0.1448,0.149,0.1616,0.1532,0.1559,0,0,0.1091,0.1083,0.1099,0.1079,0.1152,0.1098,0.1204,0.121,0.1197,0.1297,0.1301,0.1459,0.1496,0.1622,0.172,0.1741,0,0,0,0.1113,0.1142,0.1156,0.1191,0.1205,0.1276,0.1268,0.1302,0.1395,0.1226,0.1484,0.1503,0.1578,0.1512,0.153,0.1332,0.1331,0.1331,0.1331,0.1196,0.1209,0.1279,0.132,0.1359,0.1413,0.1481,0.1538,0.1503,0.1581,0.1643,0.1862,0.1795,0.1807,0.1671,0.1672,0.1672,0.1673,0.1673,0.1292,0.1335,0.1394,0.1465,0.1536,0.1627,0.1735,0.1743,0.1901,0.1814,0.1881,0.1694,0.1835,0.1685,0.1683,0.1681,0.168,0.1679,0.1678,0.1352,0.1374,0.1428,0.1542,0.1678,0.1753,0.1908,0.1983,0.2039,0.2119,0.2052,0.2047,0.1944,0.2169,0.217,0.2171,0.2171,0.2172,0.2173,0.1367,0.1427,0.1496,0.1617,0.17,0.1838,0.2014,0.211,0.2212,0.2207,0.2206,0.203,0.2013,0.1973,0.2185,0.2183,0.2181,0.218,0.2179,0.1381,0.1406,0.1506,0.1584,0.1765,0.1838,0.2022,0.2183,0.232,0.2359,0.2261,0.2255,0.2199,0.2181,0.2145,0.2389,0.2389,0.2389,0.2389,0.1371,0.1396,0.1504,0.1608,0.1745,0.1839,0.1859,0.1828,0.199,0.1974,0.1991,0.1817,0.182,0.173,0.1722,0.1671,0.1792,0.179,0.1789,0.1359,0.1409,0.1454,0.157,0.1722,0.1785,0.1642,0.1414,0.1516,0.1751,0.1739,0.2378,0.2162,0.2151,0.2037,0.2015,0.1942,0,0]},{"header":{"parameterUnit":"m.s-1","parameterCategory":2,"la1":30.2992,"la2":30.254,"lo1":-89.0895,"lo2":-89.0443,"dy":0.0025,"dx":0.0025,"nx":19,"ny":19,"refTime":"2026-05-11T09:00:00:Z","depth":"2","parameterNumber":3,"parameterNumberName":"V-component_of_CURRENTS"},"data":[0,0,0,-0.0035,-0.0035,-0.004,-0.004,-0.0096,-0.0097,0,0,0,0,0,0,0,0,0,0,0,-0.0031,-0.0031,-0.0035,-0.0035,-0.004,-0.004,-0.0096,-0.0097,0,0,0,0,0,0,0,0,0,0,0,-0.0031,-0.0031,-0.0032,-0.0035,-0.004,-0.004,-0.0096,-0.0079,0,0,0,0,0,0,0,0,0,0,-0.0068,-0.0043,-0.0031,-0.0032,-0.0035,-0.004,-0.004,-0.0078,-0.008,-0.011,0,-0.0111,0,-0.011,-0.0102,-0.0103,0,0,0,-0.0031,-0.004,-0.0059,-0.0032,-0.0035,-0.004,-0.0037,-0.0079,-0.0082,-0.0114,-0.0112,-0.0114,-0.0111,-0.0103,-0.0103,-0.0144,-0.0144,0,0,-0.0031,-0.0017,-0.0057,-0.0061,-0.0039,-0.0036,-0.0037,-0.008,-0.0075,-0.0112,-0.0115,-0.0112,-0.0104,-0.0104,-0.0144,-0.0144,0,0,0,-0.0033,-0.0017,-0.0033,-0.0059,-0.0059,-0.0037,-0.0037,-0.0073,-0.0083,-0.0116,-0.0113,-0.0104,-0.0105,-0.0144,-0.0144,-0.0056,0,0,0,-0.0032,-0.0019,-0.0033,-0.0022,-0.0057,-0.0055,-0.0029,-0.008,-0.0084,-0.0112,-0.0104,-0.0106,-0.0145,-0.0144,-0.0059,-0.0006,0,0,0,-0.0031,-0.0018,-0.0023,-0.0022,-0.0028,-0.0054,-0.0065,-0.008,-0.0084,-0.0103,-0.0106,-0.0145,-0.0144,-0.0062,-0.0011,0.0045,0,0,0,-0.0011,-0.0002,-0.0022,-0.0008,-0.0028,-0.0037,-0.0065,-0.0066,-0.0077,-0.0104,-0.0145,-0.0144,-0.0062,-0.0015,0.0042,0.0043,0.0059,0,0,0.0011,0.0001,0.0009,-0.001,-0.0006,-0.0036,-0.0017,-0.0042,-0.0085,-0.0134,-0.0135,-0.0058,-0.0012,0.0044,0.0063,0.0079,0,0,0,0.0023,0.0029,0.0026,0.0027,0.0006,0.0017,-0.0018,-0.0029,-0.0045,-0.0092,-0.0076,-0.005,-0.0016,-0.0024,-0.0012,-0.0143,-0.0143,-0.0143,-0.0143,0.0067,0.0058,0.0076,0.0064,0.0061,0.005,0.0063,0.0039,-0.002,-0.001,0.0009,0.0094,0.0085,0.0095,-0.0016,-0.0016,-0.0015,-0.0015,-0.0015,0.0109,0.0122,0.0121,0.0138,0.0134,0.0145,0.0138,0.0125,0.0137,0.0071,0.0098,0.0052,0.0114,-0.0008,-0.0009,-0.001,-0.0011,-0.0012,-0.0012,0.0131,0.0141,0.0155,0.019,0.0226,0.0224,0.0287,0.0271,0.0227,0.0257,0.0233,0.0231,0.0169,0.0267,0.0267,0.0268,0.0268,0.0268,0.0269,0.0154,0.0168,0.0211,0.0248,0.0284,0.0343,0.0381,0.0399,0.0386,0.0338,0.0337,0.0189,0.018,0.0184,0.0276,0.0275,0.0274,0.0273,0.0273,0.02,0.02,0.0268,0.0309,0.0402,0.0496,0.051,0.0553,0.0548,0.0543,0.0378,0.0373,0.0349,0.0337,0.0343,0.0472,0.0472,0.0472,0.0472,0.0231,0.0234,0.034,0.0421,0.0511,0.0575,0.0661,0.0578,0.0499,0.0399,0.0402,0.0321,0.0316,0.0284,0.0273,0.0275,0.0386,0.0385,0.0385,0.0283,0.0302,0.0394,0.0467,0.057,0.0672,0.0733,0.0607,0.0417,0.0377,0.0334,0.0476,0.0361,0.0351,0.0299,0.0283,0.0285,0,0]}],[{"header":{"parameterUnit":"m.s-1","parameterCategory":2,"la1":30.2992,"la2":30.254,"lo1":-89.0895,"lo2":-89.0443,"dy":0.0025,"dx":0.0025,"nx":19,"ny":19,"refTime":"2026-05-11T09:00:00:Z","depth":"4","parameterNumber":2,"parameterNumberName":"U-component_of_CURRENTS"},"data":[0,0,0,0.0418,0.0421,0.0578,0.0578,0.0528,0.0527,0,0,0,0,0,0,0,0,0,0,0,0.0366,0.0368,0.0417,0.0422,0.0578,0.0578,0.0529,0.0527,0,0,0,0,0,0,0,0,0,0,0,0.0366,0.0367,0.0369,0.0422,0.0577,0.0578,0.0529,0.047,0,0,0,0,0,0,0,0,0,0,0.0348,0.0349,0.0367,0.0369,0.0423,0.0577,0.0578,0.047,0.0473,0.039,0,0.0438,0,0.048,0.0519,0.0519,0,0,0,0.0409,0.0347,0.0382,0.037,0.0425,0.0577,0.0504,0.0474,0.0477,0.0394,0.0438,0.0438,0.0479,0.0519,0.0518,0.0432,0.0432,0,0,0.04,0.0389,0.0381,0.0386,0.049,0.0499,0.0509,0.0479,0.049,0.0438,0.0438,0.0479,0.0518,0.0517,0.0432,0.0432,0,0,0,0.0384,0.0383,0.0425,0.0386,0.0434,0.0504,0.0515,0.0492,0.0506,0.0438,0.0478,0.0517,0.0516,0.0432,0.0432,0.0511,0,0,0,0.0378,0.0375,0.0421,0.0415,0.0437,0.0502,0.0528,0.0508,0.0507,0.0478,0.0517,0.0515,0.0432,0.0432,0.0509,0.0552,0,0,0,0.0355,0.0372,0.0397,0.0414,0.0488,0.0504,0.0518,0.051,0.0529,0.0519,0.0514,0.0432,0.0432,0.0507,0.0548,0.0589,0,0,0,0.0325,0.0348,0.0398,0.0433,0.0486,0.054,0.0519,0.0548,0.0544,0.0517,0.0432,0.0432,0.0506,0.0545,0.0587,0.0448,0,0,0,0.0322,0.0348,0.0363,0.0411,0.0471,0.0516,0.0554,0.0542,0.0505,0.0421,0.0422,0.0509,0.0547,0.0589,0.0437,0,0,0,0,0.0339,0.036,0.0384,0.0444,0.0493,0.0558,0.0566,0.0555,0.0532,0.0508,0.0483,0.0505,0.0529,0.0438,0.0431,0.0431,0.0431,0.0431,0.0431,0.0321,0.0356,0.0397,0.0457,0.0504,0.0571,0.0601,0.0582,0.0538,0.0539,0.055,0.0609,0.0512,0.0521,0.0522,0.0522,0.0522,0.0523,0.0523,0.0318,0.0355,0.0414,0.0475,0.0556,0.0606,0.0629,0.063,0.0636,0.0588,0.0608,0.0502,0.053,0.0529,0.0528,0.0527,0.0526,0.0526,0.0525,0.0309,0.0339,0.0391,0.0489,0.0583,0.0651,0.0681,0.072,0.0709,0.0736,0.0631,0.0662,0.0678,0.075,0.0751,0.0751,0.0751,0.0752,0.0752,0.0306,0.0351,0.0386,0.0496,0.0569,0.0651,0.0732,0.0711,0.074,0.0706,0.0767,0.0686,0.0678,0.069,0.0758,0.0757,0.0756,0.0755,0.0755,0.0357,0.0316,0.0357,0.0413,0.053,0.0561,0.0677,0.0664,0.0665,0.0625,0.0678,0.068,0.0641,0.0635,0.0644,0.0701,0.07,0.0698,0,0.0346,0.0336,0.0309,0.0339,0.0382,0.0481,0.046,0.0466,0.0519,0.0551,0.058,0.0638,0.064,0.0588,0.0581,0.0586,0,0,0,0.0375,0.0325,0.0288,0.0257,0.0297,0.0348,0.0435,0.0421,0.0603,0.0487,0.0661,0.067,0.0552,0.0775,0.0721,0.0712,0.0728,0,0]},{"header":{"parameterUnit":"m.s-1","parameterCategory":2,"la1":30.2992,"la2":30.254,"lo1":-89.0895,"lo2":-89.0443,"dy":0.0025,"dx":0.0025,"nx":19,"ny":19,"refTime":"2026-05-11T09:00:00:Z","depth":"4","parameterNumber":3,"parameterNumberName":"V-component_of_CURRENTS"},"data":[0,0,0,-0.008,-0.0084,-0.027,-0.0271,-0.037,-0.037,0,0,0,0,0,0,0,0,0,0,0,-0.0015,-0.0017,-0.008,-0.0084,-0.027,-0.0271,-0.037,-0.037,0,0,0,0,0,0,0,0,0,0,0,-0.0015,-0.0016,-0.0018,-0.0085,-0.027,-0.0271,-0.037,-0.0264,0,0,0,0,0,0,0,0,0,0,-0.01,-0.0059,-0.0016,-0.0018,-0.0086,-0.027,-0.0271,-0.026,-0.027,-0.0245,0,-0.0283,0,-0.0327,-0.0374,-0.0374,0,0,0,-0.0084,-0.0051,-0.0103,-0.0018,-0.0088,-0.027,-0.0186,-0.0267,-0.0278,-0.0258,-0.0285,-0.029,-0.0328,-0.0374,-0.0374,-0.0403,-0.0402,0,0,-0.0074,-0.0043,-0.0096,-0.011,-0.0145,-0.018,-0.0192,-0.0275,-0.0285,-0.0286,-0.0293,-0.033,-0.0374,-0.0375,-0.0403,-0.0403,0,0,0,-0.0045,-0.0036,-0.0089,-0.0105,-0.0149,-0.0186,-0.0199,-0.0282,-0.0301,-0.0295,-0.0331,-0.0375,-0.0375,-0.0403,-0.0403,-0.0394,0,0,0,-0.0038,-0.0019,-0.0085,-0.0067,-0.0149,-0.0237,-0.0204,-0.0296,-0.0307,-0.0331,-0.0375,-0.0376,-0.0403,-0.0403,-0.0394,-0.0371,0,0,0,-0.0005,-0.0015,-0.0041,-0.0065,-0.0147,-0.0237,-0.0262,-0.03,-0.0328,-0.0374,-0.0376,-0.0403,-0.0403,-0.0394,-0.0373,-0.0359,0,0,0,0.0039,-0.0,-0.004,-0.0082,-0.0145,-0.0221,-0.0263,-0.033,-0.0369,-0.0375,-0.0403,-0.0403,-0.0395,-0.0373,-0.036,-0.0294,0,0,0,0.0019,-0.0002,-0.0021,-0.0061,-0.0113,-0.0195,-0.0252,-0.0329,-0.0353,-0.0366,-0.0368,-0.0394,-0.0373,-0.0359,-0.0285,0,0,0,0,-0.0006,-0.002,-0.0039,-0.0084,-0.0147,-0.0213,-0.0298,-0.033,-0.0379,-0.0378,-0.0393,-0.0379,-0.0371,-0.0335,-0.0402,-0.0402,-0.0402,-0.0402,-0.0402,0.0034,-0.0002,-0.0032,-0.0088,-0.0136,-0.0231,-0.028,-0.0336,-0.0362,-0.0382,-0.0372,-0.0353,-0.0316,-0.0383,-0.0383,-0.0382,-0.0382,-0.0382,-0.0382,0.0038,0.0018,-0.0025,-0.0075,-0.0138,-0.0197,-0.0276,-0.0315,-0.0344,-0.0366,-0.036,-0.0329,-0.0381,-0.0382,-0.0382,-0.0382,-0.0382,-0.0382,-0.0382,0.0077,0.0053,0.0019,-0.0043,-0.0102,-0.0182,-0.0196,-0.0261,-0.0319,-0.032,-0.0277,-0.0338,-0.0338,-0.0317,-0.0317,-0.0317,-0.0317,-0.0317,-0.0316,0.0117,0.008,0.0064,-0.0006,-0.0039,-0.0076,-0.0145,-0.0162,-0.0231,-0.0241,-0.0307,-0.0331,-0.0333,-0.0334,-0.0314,-0.0315,-0.0315,-0.0315,-0.0315,0.0126,0.0131,0.0112,0.0089,0.0041,0.0008,-0.003,-0.0077,-0.0087,-0.0118,-0.0205,-0.0211,-0.0203,-0.0208,-0.0205,-0.0145,-0.0144,-0.0143,0,0.0153,0.0151,0.0147,0.0138,0.0121,0.0059,0.0073,0.0036,-0.007,-0.0078,-0.012,-0.0218,-0.0222,-0.0214,-0.0217,-0.0213,0,0,0,0.016,0.016,0.0166,0.0162,0.0128,0.0096,0.0068,0.0045,-0.0034,-0.0039,-0.0119,-0.0126,-0.0198,-0.0307,-0.0309,-0.0311,-0.0313,0,0]}]]